[[{"header":{"parameterUnit":"m.s-1","parameterCategory":1,"la1":30.2992,"la2":30.254,"lo1":-89.0895,"lo2":-89.0443,"dy":0.0025,"dx":0.0025,"nx":19,"ny":19,"refTime":"2026-04-03T09:00:00:Z","depth":0,"parameterNumber":2,"parameterNumberName":"U-component_of_WINDS"},"data":[0,0,0,-2.6497,-2.6498,-2.6551,-2.6551,-2.6621,-2.6621,0,0,0,0,0,0,0,0,0,0,0,-2.6482,-2.6482,-2.6497,-2.6498,-2.6551,-2.6551,-2.6621,-2.6621,0,0,0,0,0,0,0,0,0,0,0,-2.6482,-2.6482,-2.6483,-2.6498,-2.6551,-2.6551,-2.662,-2.658,0,0,0,0,0,0,0,0,0,0,-2.6528,-2.6515,-2.6482,-2.6483,-2.6499,-2.6551,-2.6551,-2.6578,-2.6582,-2.6597,0,-2.661,0,-2.6617,-2.6626,-2.6626,0,0,0,-2.6498,-2.6511,-2.6525,-2.6483,-2.6499,-2.6551,-2.6527,-2.658,-2.6586,-2.6603,-2.6611,-2.6614,-2.6618,-2.6626,-2.6627,-2.6712,-2.6712,0,0,-2.6495,-2.6492,-2.6521,-2.6528,-2.6519,-2.6525,-2.6529,-2.6584,-2.6592,-2.6611,-2.6615,-2.6619,-2.6627,-2.6627,-2.6712,-2.6712,0,0,0,-2.6487,-2.649,-2.6502,-2.6525,-2.6535,-2.6527,-2.6531,-2.659,-2.6594,-2.6616,-2.662,-2.6627,-2.6628,-2.6711,-2.6712,-2.6727,0,0,0,-2.6485,-2.6485,-2.6501,-2.6499,-2.6534,-2.6563,-2.6536,-2.659,-2.6596,-2.662,-2.6627,-2.6629,-2.6711,-2.6711,-2.6725,-2.6734,0,0,0,-2.6478,-2.6484,-2.6492,-2.6499,-2.6522,-2.6562,-2.6569,-2.6591,-2.6599,-2.6626,-2.6629,-2.671,-2.6711,-2.6724,-2.6732,-2.6754,0,0,0,-2.647,-2.6505,-2.6492,-2.6534,-2.6521,-2.6571,-2.6569,-2.6607,-2.6632,-2.6628,-2.6711,-2.6712,-2.6724,-2.6731,-2.6753,-2.677,-2.6777,0,0,-2.6513,-2.651,-2.6535,-2.6525,-2.6576,-2.6564,-2.6618,-2.6645,-2.6652,-2.6692,-2.6694,-2.6726,-2.6732,-2.6754,-2.6825,-2.6831,0,0,0,-2.6548,-2.6565,-2.6579,-2.6603,-2.6625,-2.6644,-2.6663,-2.6673,-2.6707,-2.6671,-2.6741,-2.6745,-2.6758,-2.6766,-2.6771,-2.6782,-2.6716,-2.6716,-2.6716,-2.6601,-2.6608,-2.6648,-2.6661,-2.6685,-2.6705,-2.6724,-2.6741,-2.6741,-2.6758,-2.6769,-2.6811,-2.6821,-2.6825,-2.6836,-2.6781,-2.6781,-2.6781,-2.6781,-2.6663,-2.6687,-2.6687,-2.6726,-2.6733,-2.6766,-2.6788,-2.6786,-2.6818,-2.6804,-2.6815,-2.6796,-2.6831,-2.6841,-2.6782,-2.6782,-2.6782,-2.6782,-2.6782,-2.6696,-2.6709,-2.6721,-2.6756,-2.6783,-2.6796,-2.6827,-2.6833,-2.6839,-2.6851,-2.6862,-2.6862,-2.686,-2.6856,-2.6856,-2.6857,-2.6857,-2.6857,-2.6857,-2.6725,-2.6738,-2.6763,-2.6789,-2.6806,-2.6828,-2.685,-2.6866,-2.6886,-2.6888,-2.6888,-2.6885,-2.6834,-2.682,-2.6859,-2.6859,-2.6858,-2.6858,-2.6858,-2.678,-2.6769,-2.6806,-2.6823,-2.6854,-2.688,-2.6889,-2.6922,-2.6937,-2.6952,-2.6948,-2.691,-2.6908,-2.6904,-2.6892,-2.6947,-2.6947,-2.6947,-2.6947,-2.6806,-2.6807,-2.6846,-2.6872,-2.6898,-2.6909,-2.6952,-2.697,-2.6987,-2.6997,-2.6991,-2.6976,-2.6972,-2.6972,-2.6967,-2.6955,-2.7026,-2.7026,-2.7026,-2.6839,-2.6843,-2.6877,-2.6893,-2.6919,-2.6941,-2.6981,-2.7011,-2.7029,-2.7029,-2.7004,-2.7001,-2.6978,-2.697,-2.6967,-2.6958,-2.6937,0,0]},{"header":{"parameterUnit":"m.s-1","parameterCategory":1,"la1":30.2992,"la2":30.254,"lo1":-89.0895,"lo2":-89.0443,"dy":0.0025,"dx":0.0025,"nx":19,"ny":19,"refTime":"2026-04-03T09:00:00:Z","depth":0,"parameterNumber":3,"parameterNumberName":"V-component_of_WINDS"},"data":[0,0,0,3.5052,3.5051,3.5015,3.5015,3.4973,3.4972,0,0,0,0,0,0,0,0,0,0,0,3.5067,3.5067,3.5052,3.5051,3.5015,3.5015,3.4973,3.4972,0,0,0,0,0,0,0,0,0,0,0,3.5067,3.5067,3.5067,3.5051,3.5015,3.5015,3.4973,3.4998,0,0,0,0,0,0,0,0,0,0,3.5032,3.5051,3.5067,3.5067,3.5051,3.5015,3.5015,3.4999,3.4996,3.4992,0,3.499,0,3.4981,3.497,3.497,0,0,0,3.5047,3.5053,3.504,3.5067,3.505,3.5015,3.503,3.4998,3.4995,3.4988,3.4989,3.4988,3.498,3.497,3.497,3.4961,3.4961,0,0,3.5049,3.5062,3.5042,3.5038,3.5046,3.5031,3.5029,3.4996,3.4997,3.4989,3.4987,3.4979,3.4969,3.4969,3.4961,3.4961,0,0,0,3.5057,3.5064,3.5051,3.504,3.5034,3.503,3.5028,3.4999,3.4993,3.4986,3.4979,3.4969,3.4969,3.4961,3.4961,3.4983,0,0,0,3.5058,3.5069,3.5052,3.506,3.5034,3.5016,3.5031,3.4996,3.4992,3.4979,3.4969,3.4969,3.496,3.4961,3.4982,3.499,0,0,0,3.5068,3.507,3.5066,3.506,3.5046,3.5016,3.5009,3.4995,3.4987,3.497,3.4968,3.496,3.4961,3.4981,3.4989,3.4993,0,0,0,3.5081,3.5084,3.5067,3.5068,3.5046,3.5031,3.5009,3.4996,3.4984,3.4969,3.4961,3.4961,3.4981,3.4988,3.4993,3.5,3.5004,0,0,3.5092,3.5086,3.5085,3.5069,3.5061,3.5035,3.5029,3.5003,3.4988,3.497,3.497,3.4982,3.4989,3.4993,3.5023,3.5027,0,0,0,3.5093,3.5093,3.5088,3.5079,3.5061,3.5047,3.5022,3.5012,3.4998,3.4983,3.4984,3.4988,3.499,3.4993,3.4996,3.4997,3.4963,3.4963,3.4963,3.5127,3.5111,3.5109,3.5089,3.5079,3.5055,3.5046,3.5029,3.5012,3.5013,3.5007,3.5028,3.5032,3.5034,3.5035,3.5009,3.5009,3.501,3.501,3.5143,3.5141,3.5122,3.5114,3.5096,3.5088,3.5065,3.5054,3.5043,3.503,3.503,3.5018,3.5038,3.5039,3.5011,3.5011,3.5011,3.501,3.501,3.5164,3.516,3.5151,3.5137,3.5128,3.5106,3.5098,3.5081,3.5064,3.5065,3.5058,3.5058,3.5056,3.5063,3.5063,3.5063,3.5063,3.5063,3.5063,3.5189,3.5178,3.5175,3.5159,3.5152,3.514,3.5117,3.5108,3.5094,3.5082,3.5082,3.5066,3.5044,3.5039,3.5064,3.5064,3.5064,3.5064,3.5064,3.5212,3.5205,3.52,3.5193,3.5173,3.5166,3.5145,3.513,3.5121,3.5118,3.5102,3.5088,3.508,3.5077,3.5073,3.5105,3.5105,3.5105,3.5105,3.523,3.5225,3.5217,3.5208,3.5196,3.5177,3.5172,3.5154,3.5134,3.5127,3.512,3.5113,3.5111,3.5103,3.51,3.5096,3.5134,3.5134,3.5134,3.5244,3.5237,3.5236,3.5219,3.5203,3.519,3.5184,3.5173,3.5148,3.5135,3.5122,3.512,3.5109,3.5106,3.5091,3.5087,3.5079,0,0]}]]